This is the latest recevied weather packets stored in our database for station/object K1KOF. If no packets are shown the sender has not sent any weather packets the latest 10 day(s).
| Time | Temp. | Humidity | Pressure | Rain* | Wind** | Luminosity | Snow |
|---|---|---|---|---|---|---|---|
| 1777928254 | 26.11° C | 33% | 1024.6 hPa | 0 mm | - | 497 W/m² | - |
| 1777927952 | 26.67° C | 34% | 1024.8 hPa | 0 mm | - | 302 W/m² | - |
| 1777927348 | 26.11° C | 32% | 1024.9 hPa | 0 mm | - | 513 W/m² | - |
| 1777927047 | 26.11° C | 35% | 1024.8 hPa | 0 mm | - | 535 W/m² | - |
| 1777926444 | 26.11° C | 34% | 1024.7 hPa | 0 mm | - | 524 W/m² | - |
| 1777925233 | 26.11° C | 32% | 1024.6 hPa | 0 mm | - | 508 W/m² | - |
| 1777923109 | 25.56° C | 35% | 1025.4 hPa | 0 mm | - | 642 W/m² | - |
| 1777922807 | 26.11° C | 36% | 1025.5 hPa | 0 mm | - | 647 W/m² | - |
| 1777922203 | 25° C | 39% | 1025.6 hPa | 0 mm | - | 685 W/m² | - |
| 1777921595 | 25.56° C | 38% | 1025.9 hPa | 0 mm | - | 710 W/m² | - |
| 1777920685 | 25.56° C | 38% | 1026 hPa | 0 mm | - | 688 W/m² | - |
| 1777917658 | 23.89° C | 40% | 1026.5 hPa | 0 mm | - | 766 W/m² | - |
| 1777915536 | 23.89° C | 38% | 1026.9 hPa | 0 mm | - | 717 W/m² | - |
| 1777914930 | 23.89° C | 40% | 1026.8 hPa | 0 mm | - | 766 W/m² | - |
| 1777912806 | 23.33° C | 40% | 1027.1 hPa | 0 mm | - | 745 W/m² | - |
| 1777910683 | 22.78° C | 46% | 1028 hPa | 0 mm | - | 505 W/m² | - |
| 1777909167 | 22.78° C | 42% | 1028.2 hPa | 0 mm | - | 598 W/m² | - |
| 1777908865 | 22.78° C | 43% | 1028.1 hPa | 0 mm | - | 568 W/m² | - |
| 1777908562 | 22.22° C | 45% | 1028.1 hPa | 0 mm | - | 606 W/m² | - |
| 1777907955 | 21.67° C | 46% | 1028.2 hPa | 0 mm | - | 515 W/m² | - |
| 1777907346 | 21.11° C | 47% | 1028.3 hPa | 0 mm | - | 608 W/m² | - |
| 1777907043 | 22.22° C | 48% | 1028.1 hPa | 0 mm | - | 721 W/m² | - |
| 1777906740 | 21.67° C | 46% | 1028.1 hPa | 0 mm | - | 626 W/m² | - |
| 1777906436 | 21.67° C | 46% | 1028.2 hPa | 0 mm | - | 510 W/m² | - |
| 1777906134 | 21.11° C | 47% | 1028.2 hPa | 0 mm | - | 477 W/m² | - |
* Rain latest hour (hover to see other rain measurements)
** Current wind speed in m/s (hover to see current wind gust speed)